TimeEST,TemperatureF,Dew PointF,Humidity,Sea Level PressureIn,VisibilityMPH,Wind Direction,Wind SpeedMPH,Gust SpeedMPH,PrecipitationIn,Events,Conditions,WindDirDegrees,DateUTC
12:54 AM,28.0,23.0,81,30.12,10.0,Calm,Calm,-,N/A,,Clear,0,2012-12-20 05:54:00
1:54 AM,27.0,23.0,85,30.14,10.0,Calm,Calm,-,N/A,,Clear,0,2012-12-20 06:54:00
2:54 AM,26.1,21.9,84,30.15,10.0,Calm,Calm,-,N/A,,Clear,0,2012-12-20 07:54:00
3:54 AM,25.0,21.9,88,30.15,10.0,North,3.5,-,N/A,,Clear,350,2012-12-20 08:54:00
4:54 AM,24.1,19.9,84,30.15,10.0,Calm,Calm,-,N/A,,Clear,0,2012-12-20 09:54:00
5:54 AM,23.0,19.9,88,30.17,10.0,Calm,Calm,-,N/A,,Clear,0,2012-12-20 10:54:00
6:54 AM,23.0,19.9,88,30.19,10.0,Calm,Calm,-,N/A,,Clear,0,2012-12-20 11:54:00
7:54 AM,24.1,21.0,88,30.20,10.0,Calm,Calm,-,N/A,,Clear,0,2012-12-20 12:54:00
8:54 AM,30.0,26.1,85,30.21,10.0,Calm,Calm,-,N/A,,Clear,0,2012-12-20 13:54:00
9:54 AM,36.0,26.1,67,30.20,10.0,Calm,Calm,-,N/A,,Clear,0,2012-12-20 14:54:00
10:54 AM,39.0,26.1,60,30.19,10.0,Calm,Calm,-,N/A,,Clear,0,2012-12-20 15:54:00
11:54 AM,39.9,25.0,55,30.14,10.0,ENE,4.6,-,N/A,,Clear,70,2012-12-20 16:54:00
12:54 PM,39.9,25.0,55,30.09,10.0,NNE,8.1,-,N/A,,Clear,30,2012-12-20 17:54:00
1:54 PM,39.0,26.1,60,30.08,10.0,North,3.5,-,N/A,,Clear,10,2012-12-20 18:54:00
2:54 PM,39.9,26.1,58,30.10,10.0,Calm,Calm,-,N/A,,Clear,0,2012-12-20 19:54:00
3:54 PM,39.0,27.0,62,30.06,10.0,ESE,4.6,-,N/A,,Clear,120,2012-12-20 20:54:00
4:54 PM,37.9,27.0,65,30.04,10.0,SSE,3.5,-,N/A,,Clear,150,2012-12-20 21:54:00
5:54 PM,37.9,28.0,68,30.04,10.0,Calm,Calm,-,N/A,,Clear,0,2012-12-20 22:54:00
6:28 PM,37.4,28.4,70,30.04,10.0,Calm,Calm,-,N/A,,Mostly Cloudy,0,2012-12-20 23:28:00
6:54 PM,37.0,30.0,76,30.06,10.0,Calm,Calm,-,N/A,,Overcast,0,2012-12-20 23:54:00
7:54 PM,37.9,30.0,73,29.99,10.0,ENE,5.8,-,N/A,,Overcast,70,2012-12-21 00:54:00
8:54 PM,37.0,33.1,86,30.00,10.0,WSW,4.6,-,0.00,Rain,Light Rain,240,2012-12-21 01:54:00
9:54 PM,37.0,34.0,89,29.94,10.0,North,4.6,-,0.03,,Overcast,360,2012-12-21 02:54:00
10:54 PM,37.0,34.0,89,29.87,10.0,NNE,5.8,-,0.00,,Overcast,20,2012-12-21 03:54:00
11:17 PM,35.6,33.8,93,29.84,10.0,NNE,6.9,-,0.00,Rain,Light Rain,30,2012-12-21 04:17:00
11:54 PM,41.0,37.9,89,29.81,10.0,ESE,4.6,-,0.00,Rain,Light Rain,110,2012-12-21 04:54:00